Powrót do katalogu

STARLINK-35786

AktywnyŁącznośćVLEO
NORAD 67040·PAYLOAD·🇺🇸 United States

Wystrzelony Dec 11, 2025 z Cape Canaveral Space Force Station

Loading…

Następne Przeloty (najbliższe 24 godziny)

TLE

ŚwieżeSource: CelesTrak SupGP

Epoka: Sep 14, 2026, 23:06 UTC

1 67040C 25294L   26257.96298611  .00037140  00000+0  13451-2 0  2570
2 67040  43.0027  49.3711 0001888 273.6581  87.6612 15.27562752    10

Śledź STARLINK-35786 w czasie rzeczywistym z AllMySat

Download on the App Store